Main page


Airports :

Sirri, Iran

Sirri Island Airport

latitude: 25-54-34N, longitude: 054-32-22E, elevation: 13 m

Current weather observation

The report was made 37 minutes ago, at 04:00 UTC
Wind 4 kt from the South/Southwest
Temperature 24°C
Humidity 89%
Pressure 1010 hPa
Visibility: 3000 m
Few clouds at a height of 3000 ft
Overcast at a height of 9000 ft

METAR: OIBS 170400Z 21004KT 3000 BR FEW030 OVC090 24/22 Q1010

Time: 08:07 (04:37 UTC)

TAF: missing

Weather observations and forecasts of more than 4000 airports (METAR and TAF reports).

The available stations are represented by yellow and red dots on the map.

Hover mouse over dot to see the name of the station.

Then click to see weather observations and forecasts.

To change the map : click on the green buttons with a black cross to zoom in, on the green button with a dash to zoom out, or on the green arrows for adjacent maps.